sat.trackr.live / text

‹ back to catalog

STARLINK-4504

NORAD 53555 · 2022-101AE

PAYLOAD ACTIVE UNKNOWN

§ Identity

Operator
Country
US
Launch date
2022-08-19
Launch site
AFETR
Launch vehicle
Mass (kg)
RCS (m²)

Purposes: comms

External: N2YO · Heavens-Above · Gunter

§ Orbital elements

Epoch: 2026-09-20T00:26:32.860032Z

Period
95.44 min
Inclination
53.1603°
Eccentricity
0.0001153
Mean motion
15.08836514 rev/d
Perigee alt
539.0 km
Apogee alt
540.6 km
Semi-major
6,917.9 km
B*
5.7512e-5
RAAN
271.0878°
Arg perigee
74.8872°
Mean anomaly
285.2246°
Rev number
22,630

§ Raw data

STARLINK-45041 53555U 22101AE  26263.01843588  .00000627  00000+0  57512-4 0  99932 53555  53.1603 271.0878 0001153  74.8872 285.2246 15.08836514226305

JSON: /api/v1/satellites/53555 · /tle

For live sub-satellite position, see the globe view (requires WebGL).

§ Visibility from observer

Set your observer location to see the next 7 days of passes ≥ 10°. The values pass through the URL so the page stays shareable.

No JS? Fill the form by hand. The geolocation button needs JavaScript.